Simultaneous Nadir Overpasses (SNOs) Predictions

Prediction of SNOs between AQUA and METOP-B Satellite Orbit:

Table of predicted SNOs for the next 14.0 days since TLE Epoch: 1/24/2020
Index Date (AQUA) Time (AQUA) Lat,Lon (AQUA) SZA (AQUA ) Date (METOP-B) Time (METOP-B) Lat,Lon (METOP-B) SZA (METOP-B ) Distance(km) Time Diff (sec)
1 01/25/2020 07:22:17 -73.02,-114.75 87.89 01/25/2020 07:21:12 -73.00,-117.81 87.76 99.19 65
2 01/25/2020 08:11:59 73.78, 51.30 92.92 01/25/2020 08:11:36 73.77, 51.28 92.93 0.67 23
3 01/25/2020 09:01:26 -73.85,-141.22 87.01 01/25/2020 09:02:17 -73.83,-141.27 87.04 2.92 51
4 01/28/2020 02:56:39 -73.33, -48.94 88.26 01/28/2020 02:55:30 -73.29, -50.77 88.21 58.51 69
5 01/28/2020 03:46:15 73.78, 117.73 92.22 01/28/2020 03:45:59 73.81, 117.76 92.25 3.34 16
6 01/28/2020 04:35:42 -73.84, -74.77 87.72 01/28/2020 04:36:40 -73.86, -74.77 87.71 2.36 58
7 01/30/2020 22:31:00 -73.64, 16.84 88.67 01/30/2020 22:29:47 -73.57, 16.28 88.70 18.94 73
8 01/30/2020 23:20:30 73.79,-175.84 91.48 01/30/2020 23:20:22 73.79,-175.87 91.49 0.94 8
9 01/31/2020 00:09:57 -73.84, -8.33 88.47 01/31/2020 00:11:03 -73.85, -8.40 88.47 2.43 66
10 02/02/2020 18:05:18 -73.75, 83.04 89.35 02/02/2020 18:04:07 -73.75, 83.11 89.33 2.43 71
11 02/02/2020 18:54:46 73.80,-109.43 90.70 02/02/2020 18:54:45 73.82,-109.40 90.72 2.47 1
12 02/02/2020 19:44:14 -73.90, 57.99 89.20 02/02/2020 19:45:26 -73.88, 58.08 89.23 3.45 72
13 02/05/2020 13:39:34 -73.76, 149.46 90.17 02/05/2020 13:38:31 -73.74, 149.48 90.18 2.44 63
14 02/05/2020 14:29:02 73.81, -43.03 89.89 02/05/2020 14:29:09 73.80, -43.04 89.87 2.12 7




NCC Satellite Simultaneous Nadir Overpasses (SNOs) Prediction Service
